This demonstration page uses our WeatherBlox Daily Observations layout. Learn more.

Left ArrowRight Arrow

41.55636, -103.73856

Hourly Observations for May 23, 2022

Temp ( °F °C ) Dew Point ( °F °C ) Humidity (%) Winds ( mph kmh ) Pressure ( in mb ) Visibility ( mi km ) Precip ( " mm )
12:58 am 00:58 Cloudy with Light Rain 45 7.4 38 3.4 76 76 SSE 12 19 30.06 1018 10 16 0.02 0.51
1:58 am 01:58 Cloudy with Rain 43 6.3 39 4.1 86 86 S 25 41 30.06 1018 9 14 0.15 3.81
2:58 am 02:58 Cloudy with Light Rain 42 5.6 40 4.2 91 91 SSE 36 57 29.96 1015 4 6 0.17 4.32
3:58 am 03:58 Cloudy 42 5.8 39 3.8 87 87 SSE 25 41 29.97 1015 10 16 0.02 0.51
4:58 am 04:58 Cloudy 42 5.7 38 3.2 84 84 ESE 15 24 30.01 1016 10 16 0.00 0.00
5:58 am 05:58 Cloudy 42 5.3 37 2.6 83 83 SE 16 26 30.00 1016 10 16 0.00 0.00
6:58 am 06:58 Cloudy 42 5.5 37 2.8 83 83 ESE 12 19 30.00 1016 10 16 0.00 0.00
7:58 am 07:58 Cloudy 44 6.4 37 3 79 79 SE 13 20 30.00 1016 10 16 0.00 0.00
8:58 am 08:58 Cloudy 44 6.5 37 2.9 78 78 SE 8 13 30.00 1016 10 16 0.00 0.00
9:58 am 09:58 Cloudy 44 6.4 37 2.8 78 78 SSE 13 20 30.01 1016 10 16 0.00 0.00
11:58 am 11:58 Cloudy with Light Rain 40 4.6 37 2.6 87 87 SSE 8 13 30.02 1017 10 16 0.03 0.76
12:58 pm 12:58 Cloudy with Light Rain 43 6.1 39 3.9 86 86 ESE 3 6 30.01 1016 10 16 0.02 0.51
1:58 pm 13:58 Cloudy 46 7.7 39 3.9 77 77 Calm 30.01 1016 10 16 0.01 0.25
2:58 pm 14:58 Cloudy 49 9.4 40 4.2 70 70 NE 6 9 30.01 1016 10 16 0.00 0.00
3:58 pm 15:58 Mostly Cloudy 49 9.3 39 4.1 70 70 ENE 7 11 30.01 1016 10 16 0.00 0.00
4:58 pm 16:58 Cloudy 49 9.5 40 4.3 70 70 ENE 8 13 30.00 1016 10 16 0.00 0.00
5:58 pm 17:58 Mostly Cloudy 49 9.2 39 4 70 70 E 10 17 30.02 1017 10 16 0.00 0.00
6:58 pm 18:58 Mostly Cloudy 47 8.4 41 5 79 79 E 13 20 30.02 1017 10 16 0.00 0.00
7:58 pm 19:58 Mostly Sunny 44 6.7 40 4.5 86 86 ESE 10 17 30.03 1017 10 16 0.00 0.00
8:58 pm 20:58 Clear 40 4.3 38 3.6 95 95 E 8 13 30.07 1018 10 16 0.00 0.00
9:58 pm 21:58 Partly Cloudy 40 4.7 39 4 95 95 E 3 6 30.08 1019 10 16 0.00 0.00
10:58 pm 22:58 Mostly Cloudy with Mist and Fog 42 5.8 41 5.2 96 96 Calm 30.09 1019 7 11 0.00 0.00
11:58 pm 23:58 Mostly Cloudy with Mist and Fog 41 4.8 40 4.2 96 96 ESE 3 6 30.09 1019 1 2 0.00 0.00

Powered by AerisWeather